THY2681 LTCR-LTFM

Flight info

Callsign THY2681
Flight time N/A
Altitude 36000
Route DYB UW73 GEM UL614 BAG UL605 YAVRU UL615 ERSEN
Aircraft B738/M-SDE2E3FGHIRWXY/LB1

Departure

Time 2026-05-05 11:27
Airport Mardin Airport (LTCR)

Arrival

Time N/A
Airport İstanbul Airport (LTFM)
Time Latitude Longitude Altitude Speed Heading
2026-05-05 11:21 37.23286 40.63861 1730 ft 0 kts 310°
2026-05-05 11:22 37.23283 40.63865 1730 ft 2 kts 307°
2026-05-05 11:22 37.23277 40.63883 1730 ft 2 kts 279°
2026-05-05 11:22 37.23276 40.63902 1730 ft 2 kts 259°
2026-05-05 11:23 37.23282 40.63920 1730 ft 2 kts 238°
2026-05-05 11:23 37.23291 40.63934 1730 ft 2 kts 216°
2026-05-05 11:23 37.23296 40.63938 1730 ft 0 kts 215°
2026-05-05 11:25 37.23286 40.63941 1730 ft 2 kts 156°
2026-05-05 11:25 37.23226 40.63998 1729 ft 15 kts 167°
2026-05-05 11:25 37.23136 40.63938 1725 ft 15 kts 218°
2026-05-05 11:25 37.23109 40.63912 1724 ft 0 kts 218°
2026-05-05 11:26 37.23102 40.63905 1723 ft 2 kts 217°
2026-05-05 11:26 37.23082 40.63886 1723 ft 0 kts 217°
2026-05-05 11:26 37.23027 40.63833 1722 ft 38 kts 219°
2026-05-05 11:26 37.22578 40.63405 1702 ft 120 kts 218°
2026-05-05 11:27 37.22137 40.62985 1685 ft 152 kts 217°
2026-05-05 11:27 37.21870 40.62729 1672 ft 168 kts 215°
2026-05-05 11:27 37.20835 40.61747 1980 ft 192 kts 217°
2026-05-05 11:27 37.19825 40.60821 2901 ft 175 kts 217°
2026-05-05 11:28 37.18809 40.59911 3233 ft 188 kts 216°
2026-05-05 11:28 37.17719 40.58943 3623 ft 200 kts 216°
2026-05-05 11:28 37.16557 40.57907 4110 ft 209 kts 216°
2026-05-05 11:28 37.15332 40.56813 4494 ft 224 kts 216°
2026-05-05 11:29 37.14041 40.55613 4783 ft 244 kts 221°
2026-05-05 11:29 37.12952 40.53890 5095 ft 264 kts 246°
2026-05-05 11:29 37.12650 40.51612 5800 ft 266 kts 273°
2026-05-05 11:29 37.12860 40.49468 6989 ft 245 kts 274°
2026-05-05 11:30 37.12926 40.47235 7086 ft 273 kts 266°
2026-05-05 11:30 37.12801 40.44823 7620 ft 279 kts 264°
2026-05-05 11:30 37.12673 40.42424 8299 ft 282 kts 266°
2026-05-05 11:30 37.12603 40.39953 8914 ft 287 kts 268°
2026-05-05 11:31 37.12569 40.37415 9561 ft 291 kts 268°
2026-05-05 11:31 37.12542 40.34863 10275 ft 298 kts 268°
2026-05-05 11:31 37.12508 40.32217 10908 ft 311 kts 267°
2026-05-05 11:31 37.12467 40.29485 11538 ft 324 kts 267°
2026-05-05 11:32 37.12421 40.26591 12178 ft 336 kts 267°
2026-05-05 11:32 37.12376 40.23686 12875 ft 346 kts 267°
2026-05-05 11:32 37.12327 40.20577 13482 ft 361 kts 267°
2026-05-05 11:32 37.12284 40.17399 14042 ft 375 kts 269°
2026-05-05 11:33 37.12697 40.14082 14545 ft 393 kts 287°
2026-05-05 11:33 37.13871 40.10963 15258 ft 403 kts 297°
2026-05-05 11:33 37.15340 40.07940 16044 ft 410 kts 301°
2026-05-05 11:33 37.16909 40.04928 16840 ft 415 kts 301°
2026-05-05 11:34 37.18485 40.01908 17615 ft 419 kts 300°
2026-05-05 11:34 37.20076 39.98778 18404 ft 423 kts 300°
2026-05-05 11:34 37.21633 39.95635 19146 ft 428 kts 298°
2026-05-05 11:34 37.23176 39.92450 19897 ft 431 kts 298°
2026-05-05 11:35 37.24738 39.89179 20611 ft 435 kts 297°
2026-05-05 11:35 37.26270 39.85944 21277 ft 440 kts 297°
2026-05-05 11:35 37.27845 39.82602 22004 ft 443 kts 297°
2026-05-05 11:35 37.29415 39.79265 22619 ft 448 kts 297°
2026-05-05 11:36 37.31004 39.75881 23286 ft 451 kts 297°
2026-05-05 11:36 37.32596 39.72489 23903 ft 455 kts 296°
2026-05-05 11:36 37.34217 39.69034 24472 ft 459 kts 296°
2026-05-05 11:36 37.35829 39.65594 25061 ft 463 kts 296°
2026-05-05 11:37 37.37472 39.62090 25640 ft 465 kts 296°
2026-05-05 11:37 37.39122 39.58566 26145 ft 469 kts 296°
2026-05-05 11:37 37.40777 39.55026 26714 ft 471 kts 296°
2026-05-05 11:37 37.42439 39.51474 27500 ft 467 kts 295°
2026-05-05 11:38 37.44104 39.47916 28298 ft 462 kts 295°
2026-05-05 11:38 37.45726 39.44447 29022 ft 458 kts 295°
2026-05-05 11:38 37.47319 39.41032 29647 ft 456 kts 294°
2026-05-05 11:38 37.48925 39.37575 29888 ft 460 kts 294°
2026-05-05 11:39 37.50553 39.34061 29897 ft 459 kts 294°
2026-05-05 11:39 37.53774 39.27107 29873 ft 467 kts 294°
2026-05-05 11:40 37.57070 39.19968 29898 ft 474 kts 294°
2026-05-05 11:40 37.60400 39.12754 29907 ft 474 kts 294°
2026-05-05 11:41 37.63732 39.05523 29917 ft 474 kts 294°
2026-05-05 11:41 37.67035 38.98352 29918 ft 472 kts 294°
2026-05-05 11:42 37.70314 38.91198 29911 ft 476 kts 294°
2026-05-05 11:42 37.73671 38.83869 29918 ft 476 kts 294°
2026-05-05 11:43 37.76953 38.76683 29923 ft 478 kts 294°
2026-05-05 11:43 37.80288 38.69371 29924 ft 477 kts 294°
2026-05-05 11:44 37.83593 38.62099 29923 ft 479 kts 294°
2026-05-05 11:44 37.86912 38.54789 29925 ft 477 kts 294°
2026-05-05 11:45 37.90240 38.47429 29924 ft 481 kts 294°
2026-05-05 11:45 37.93547 38.40106 29924 ft 481 kts 294°
2026-05-05 11:46 37.96867 38.32740 29927 ft 480 kts 294°
2026-05-05 11:46 38.00180 38.25374 29913 ft 480 kts 294°
2026-05-05 11:47 38.03466 38.18048 29918 ft 479 kts 294°
2026-05-05 11:47 38.06756 38.10697 29920 ft 480 kts 294°
2026-05-05 11:48 38.11713 37.99586 29928 ft 482 kts 294°
2026-05-05 11:48 38.15020 37.92152 29930 ft 484 kts 294°
2026-05-05 11:49 38.18320 37.84717 29914 ft 484 kts 294°
2026-05-05 11:49 38.21596 37.77319 29892 ft 484 kts 295°
2026-05-05 11:50 38.24912 37.69816 29872 ft 484 kts 295°
2026-05-05 11:50 38.28199 37.62360 29896 ft 485 kts 295°
2026-05-05 11:51 38.31487 37.54885 29916 ft 484 kts 295°